Hourly Data Report for August 07, 2022

TORONTO INTL A
ONTARIO
Current Station Operator: NAVCAN

43°40'36.000" N
79°37'50.000" W
173.40 m
6158731
71624
YYZ

Download Data

Hourly Data (August 2022)
Hourly Data Report for August 7, 2022
TIME
LST
Temp Definition
°C
Dew Point Definition
°C
Rel Hum Definition
%
Precip. Amount Definition
mm

Wind Dir Definition
10's deg

Wind Spd Definition
km/h
Visibility Definition
km
Stn Press Definition
kPa
Hmdx Definition


Wind Chill Definition


Weather Definition


00:00 25.4 21.4 78   20 10 24.1 99.78 34   LegendNANA
01:00 24.7 21.4 82   22 8 24.1 99.78 33   Mainly Clear
02:00 24.3 21.4 84   22 13 24.1 99.78 33   LegendNANA
03:00 23.5 22.0 91   23 7 24.1 99.75 33   LegendNANA
04:00 23.6 22.4 93   22 9 24.1 99.75 33   Mainly Clear
05:00 23.1 22.7 98   22 8 24.1 99.79 33   LegendNANA
06:00 23.8 23.2 97   25 12 24.1 99.80 34   LegendNANA
07:00 25.8 23.5 87   25 10 24.1 99.78 37   Mostly Cloudy
08:00 26.9 22.9 78   23 9 24.1 99.76 37   LegendNANA
09:00 29.8 22.5 64   23 13 24.1 99.73 40   LegendNANA
10:00 31.2 21.0 54   25 19 24.1 99.72 40   Mostly Cloudy
11:00 31.4 20.6 52   23 24 24.1 99.70 39   LegendNANA
12:00 31.6 21.6 55   21 24 24.1 99.64 41   LegendNANA
13:00 31.7 21.7 55   22 16 24.1 99.59 41   Mostly Cloudy
14:00 31.6 22.1 57   20 23 24.1 99.50 41   LegendNANA
15:00 33.0 22.2 52   23 27 24.1 99.43 43   LegendNANA
16:00 31.8 22.6 57   22 23 24.1 99.42 42   Mostly Cloudy
17:00 31.9 22.0 55   21 25 24.1 99.42 41   LegendNANA
18:00 31.0 22.4 60   24 22 24.1 99.38 41   LegendNANA
19:00 30.2 22.6 63   23 21 24.1 99.41 40   Mostly Cloudy
20:00 28.9 22.8 69   24 15 24.1 99.41 39   LegendNANA
21:00 27.8 23.8 78   24 24 24.1 99.46 39   LegendNANA
22:00 27.1 24.5 85   25 14 24.1 99.43 39   Mostly Cloudy
23:00 26.7 24.4 87   23 16 24.1 99.43 38   LegendNANA

Notes on Data Quality.

Legend

  • E = Estimated
  • M = Missing
  • NA = Not Available*
  • [empty] = Indicates an unobserved value
Date modified: